Year,Month,Day,Hour,Minute,Value (Times are PST for temperature in C)
2006,05,08,00,00,6.90
2006,05,08,00,01,6.90
2006,05,08,00,02,6.90
2006,05,08,00,03,6.90
2006,05,08,00,04,6.90
2006,05,08,00,05,7.00
2006,05,08,00,06,7.00
2006,05,08,00,07,7.00
2006,05,08,00,08,6.90
2006,05,08,00,09,6.90
2006,05,08,00,10,6.90
2006,05,08,00,11,6.90
2006,05,08,00,12,6.90
2006,05,08,00,13,6.90
2006,05,08,00,14,6.90
2006,05,08,00,15,6.90
2006,05,08,00,16,6.90
2006,05,08,00,17,6.90
2006,05,08,00,18,6.90
2006,05,08,00,19,6.80
2006,05,08,00,20,6.80
2006,05,08,00,21,6.80
2006,05,08,00,22,6.80
2006,05,08,00,23,6.80
2006,05,08,00,24,6.80
2006,05,08,00,25,6.80
2006,05,08,00,26,6.80
2006,05,08,00,27,6.80
2006,05,08,00,28,6.80
2006,05,08,00,29,6.80
2006,05,08,00,30,6.80
2006,05,08,00,31,6.80
2006,05,08,00,32,6.80
2006,05,08,00,33,6.80
2006,05,08,00,34,6.80
2006,05,08,00,35,6.80
2006,05,08,00,36,6.80
2006,05,08,00,37,6.70
2006,05,08,00,38,6.70
2006,05,08,00,39,6.70
2006,05,08,00,40,6.70
2006,05,08,00,41,6.60
2006,05,08,00,42,6.60
2006,05,08,00,43,6.60
2006,05,08,00,44,6.60
2006,05,08,00,45,6.60
2006,05,08,00,46,6.60
2006,05,08,00,47,6.60
2006,05,08,00,48,6.60
2006,05,08,00,49,6.60
2006,05,08,00,50,6.50
2006,05,08,00,51,6.40
2006,05,08,00,52,6.40
2006,05,08,00,53,6.40
2006,05,08,00,54,6.40
2006,05,08,00,55,6.40
2006,05,08,00,56,6.40
2006,05,08,00,57,6.40
2006,05,08,00,58,6.40
2006,05,08,00,59,6.40
2006,05,08,01,00,6.40
2006,05,08,01,01,6.40
2006,05,08,01,02,6.40
2006,05,08,01,03,6.40
2006,05,08,01,04,6.40
2006,05,08,01,05,6.40
2006,05,08,01,06,6.40
2006,05,08,01,07,6.40
2006,05,08,01,08,6.40
2006,05,08,01,09,6.40
2006,05,08,01,10,6.40
2006,05,08,01,11,6.40
2006,05,08,01,12,6.40
2006,05,08,01,13,6.40
2006,05,08,01,14,6.40
2006,05,08,01,15,6.40
2006,05,08,01,16,6.40
2006,05,08,01,17,6.40
2006,05,08,01,18,6.40
2006,05,08,01,19,6.40
2006,05,08,01,20,6.30
2006,05,08,01,21,6.30
2006,05,08,01,22,6.30
2006,05,08,01,23,6.30
2006,05,08,01,24,6.30
2006,05,08,01,25,6.30
2006,05,08,01,26,6.20
2006,05,08,01,27,6.20
2006,05,08,01,28,6.20
2006,05,08,01,29,6.20
2006,05,08,01,30,6.30
2006,05,08,01,31,6.30
2006,05,08,01,32,6.30
2006,05,08,01,33,6.30
2006,05,08,01,34,6.30
2006,05,08,01,35,6.30
2006,05,08,01,36,6.30
2006,05,08,01,37,6.20
2006,05,08,01,38,6.20
2006,05,08,01,39,6.20
2006,05,08,01,40,6.20
2006,05,08,01,41,6.20
2006,05,08,01,42,6.20
2006,05,08,01,43,6.20
2006,05,08,01,44,6.20
2006,05,08,01,45,6.20
2006,05,08,01,46,6.10
2006,05,08,01,47,6.10
2006,05,08,01,48,6.10
2006,05,08,01,49,6.10
2006,05,08,01,50,6.10
2006,05,08,01,51,6.10
2006,05,08,01,52,6.00
2006,05,08,01,53,6.00
2006,05,08,01,54,6.00
2006,05,08,01,55,6.00
2006,05,08,01,56,6.00
2006,05,08,01,57,6.00
2006,05,08,01,58,6.00
2006,05,08,01,59,6.00
2006,05,08,02,00,6.00
2006,05,08,02,01,6.00
2006,05,08,02,02,6.00
2006,05,08,02,03,6.00
2006,05,08,02,04,6.00
2006,05,08,02,05,6.00
2006,05,08,02,06,5.90
2006,05,08,02,07,5.90
2006,05,08,02,08,5.90
2006,05,08,02,09,5.80
2006,05,08,02,10,5.80
2006,05,08,02,11,5.80
2006,05,08,02,12,5.80
2006,05,08,02,13,5.90
2006,05,08,02,14,5.90
2006,05,08,02,15,5.90
2006,05,08,02,16,5.90
2006,05,08,02,17,5.90
2006,05,08,02,18,6.00
2006,05,08,02,19,6.00
2006,05,08,02,20,6.00
2006,05,08,02,21,6.00
2006,05,08,02,22,6.00
2006,05,08,02,23,6.00
2006,05,08,02,24,6.00
2006,05,08,02,25,6.00
2006,05,08,02,26,5.90
2006,05,08,02,27,5.90
2006,05,08,02,28,5.90
2006,05,08,02,29,5.90
2006,05,08,02,30,5.90
2006,05,08,02,31,5.90
2006,05,08,02,32,5.90
2006,05,08,02,33,5.90
2006,05,08,02,34,5.90
2006,05,08,02,35,5.90
2006,05,08,02,36,5.90
2006,05,08,02,37,5.90
2006,05,08,02,38,5.90
2006,05,08,02,39,6.00
2006,05,08,02,40,6.00
2006,05,08,02,41,6.10
2006,05,08,02,42,6.10
2006,05,08,02,43,6.10
2006,05,08,02,44,6.10
2006,05,08,02,45,6.10
2006,05,08,02,46,6.10
2006,05,08,02,47,6.20
2006,05,08,02,48,6.20
2006,05,08,02,49,6.20
2006,05,08,02,50,6.20
2006,05,08,02,51,6.20
2006,05,08,02,52,6.20
2006,05,08,02,53,6.10
2006,05,08,02,54,6.10
2006,05,08,02,55,6.00
2006,05,08,02,56,6.00
2006,05,08,02,57,6.10
2006,05,08,02,58,6.10
2006,05,08,02,59,6.10
2006,05,08,03,00,6.10
2006,05,08,03,01,6.10
2006,05,08,03,02,6.20
2006,05,08,03,03,6.20
2006,05,08,03,04,6.20
2006,05,08,03,05,6.20
2006,05,08,03,06,6.20
2006,05,08,03,07,6.20
2006,05,08,03,08,6.20
2006,05,08,03,09,6.10
2006,05,08,03,10,6.10
2006,05,08,03,11,6.10
2006,05,08,03,12,6.10
2006,05,08,03,13,6.00
2006,05,08,03,14,5.90
2006,05,08,03,15,5.90
2006,05,08,03,16,5.90
2006,05,08,03,17,5.80
2006,05,08,03,18,5.80
2006,05,08,03,19,5.80
2006,05,08,03,20,5.80
2006,05,08,03,21,5.80
2006,05,08,03,22,5.80
2006,05,08,03,23,5.80
2006,05,08,03,24,5.80
2006,05,08,03,25,5.70
2006,05,08,03,26,5.70
2006,05,08,03,27,5.70
2006,05,08,03,28,5.70
2006,05,08,03,29,5.70
2006,05,08,03,30,5.70
2006,05,08,03,31,5.70
2006,05,08,03,32,5.70
2006,05,08,03,33,5.60
2006,05,08,03,34,5.60
2006,05,08,03,35,5.60
2006,05,08,03,36,5.50
2006,05,08,03,37,5.50
2006,05,08,03,38,5.50
2006,05,08,03,39,5.50
2006,05,08,03,40,5.50
2006,05,08,03,41,5.50
2006,05,08,03,42,5.50
2006,05,08,03,43,5.50
2006,05,08,03,44,5.60
2006,05,08,03,45,5.60
2006,05,08,03,46,5.60
2006,05,08,03,47,5.60
2006,05,08,03,48,5.50
2006,05,08,03,49,5.60
2006,05,08,03,50,5.60
2006,05,08,03,51,5.60
2006,05,08,03,52,5.60
2006,05,08,03,53,5.60
2006,05,08,03,54,5.60
2006,05,08,03,55,5.60
2006,05,08,03,56,5.50
2006,05,08,03,57,5.50
2006,05,08,03,58,5.50
2006,05,08,03,59,5.50
2006,05,08,04,00,5.50
2006,05,08,04,01,5.40
2006,05,08,04,02,5.40
2006,05,08,04,03,5.40
2006,05,08,04,04,5.30
2006,05,08,04,05,5.30
2006,05,08,04,06,5.30
2006,05,08,04,07,5.30
2006,05,08,04,08,5.30
2006,05,08,04,09,5.30
2006,05,08,04,10,5.30
2006,05,08,04,11,5.30
2006,05,08,04,12,5.30
2006,05,08,04,13,5.30
2006,05,08,04,14,5.20
2006,05,08,04,15,5.20
2006,05,08,04,16,5.20
2006,05,08,04,17,5.20
2006,05,08,04,18,5.20
2006,05,08,04,19,5.20
2006,05,08,04,20,5.20
2006,05,08,04,21,5.20
2006,05,08,04,22,5.20
2006,05,08,04,23,5.20
2006,05,08,04,24,5.20
2006,05,08,04,25,5.20
2006,05,08,04,26,5.20
2006,05,08,04,27,5.30
2006,05,08,04,28,5.20
2006,05,08,04,29,5.20
2006,05,08,04,30,5.20
2006,05,08,04,31,5.20
2006,05,08,04,32,5.20
2006,05,08,04,33,5.10
2006,05,08,04,34,5.10
2006,05,08,04,35,4.90
2006,05,08,04,36,4.90
2006,05,08,04,37,4.80
2006,05,08,04,38,4.70
2006,05,08,04,39,4.60
2006,05,08,04,40,4.60
2006,05,08,04,41,4.60
2006,05,08,04,42,4.70
2006,05,08,04,43,4.70
2006,05,08,04,44,4.80
2006,05,08,04,45,4.90
2006,05,08,04,46,4.90
2006,05,08,04,47,4.80
2006,05,08,04,48,4.70
2006,05,08,04,49,4.70
2006,05,08,04,50,4.60
2006,05,08,04,51,4.60
2006,05,08,04,52,4.50
2006,05,08,04,53,4.50
2006,05,08,04,54,4.40
2006,05,08,04,55,4.30
2006,05,08,04,56,4.20
2006,05,08,04,57,4.20
2006,05,08,04,58,4.10
2006,05,08,04,59,4.00
2006,05,08,05,00,4.00
2006,05,08,05,01,3.90
2006,05,08,05,02,3.80
2006,05,08,05,03,3.80
2006,05,08,05,04,3.80
2006,05,08,05,05,3.80
2006,05,08,05,06,3.80
2006,05,08,05,07,3.80
2006,05,08,05,08,3.80
2006,05,08,05,09,3.80
2006,05,08,05,10,3.70
2006,05,08,05,11,3.70
2006,05,08,05,12,3.70
2006,05,08,05,13,3.70
2006,05,08,05,14,3.70
2006,05,08,05,15,3.60
2006,05,08,05,16,3.60
2006,05,08,05,17,3.60
2006,05,08,05,18,3.60
2006,05,08,05,19,3.60
2006,05,08,05,20,3.50
2006,05,08,05,21,3.50
2006,05,08,05,22,3.50
2006,05,08,05,23,3.40
2006,05,08,05,24,3.40
2006,05,08,05,25,3.40
2006,05,08,05,26,3.40
2006,05,08,05,27,3.30
2006,05,08,05,28,3.30
2006,05,08,05,29,3.30
2006,05,08,05,30,3.30
2006,05,08,05,31,3.30
2006,05,08,05,32,3.30
2006,05,08,05,33,3.20
2006,05,08,05,34,3.20
2006,05,08,05,35,3.20
2006,05,08,05,36,3.30
2006,05,08,05,37,3.30
2006,05,08,05,38,3.50
2006,05,08,05,39,3.50
2006,05,08,05,40,3.60
2006,05,08,05,41,3.80
2006,05,08,05,42,3.80
2006,05,08,05,43,3.90
2006,05,08,05,44,4.00
2006,05,08,05,45,4.10
2006,05,08,05,46,4.10
2006,05,08,05,47,4.10
2006,05,08,05,48,4.00
2006,05,08,05,49,4.00
2006,05,08,05,50,4.00
2006,05,08,05,51,3.90
2006,05,08,05,52,3.90
2006,05,08,05,53,3.80
2006,05,08,05,54,3.80
2006,05,08,05,55,3.80
2006,05,08,05,56,3.80
2006,05,08,05,57,3.80
2006,05,08,05,58,3.70
2006,05,08,05,59,3.70
2006,05,08,06,00,3.70
2006,05,08,06,01,3.70
2006,05,08,06,02,3.60
2006,05,08,06,03,3.60
2006,05,08,06,04,3.50
2006,05,08,06,05,3.50
2006,05,08,06,06,3.50
2006,05,08,06,07,3.50
2006,05,08,06,08,3.50
2006,05,08,06,09,3.40
2006,05,08,06,10,3.40
2006,05,08,06,11,3.40
2006,05,08,06,12,3.30
2006,05,08,06,13,3.30
2006,05,08,06,14,3.30
2006,05,08,06,15,3.30
2006,05,08,06,16,3.30
2006,05,08,06,17,3.30
2006,05,08,06,18,3.30
2006,05,08,06,19,3.30
2006,05,08,06,20,3.30
2006,05,08,06,21,3.30
2006,05,08,06,22,3.30
2006,05,08,06,23,3.30
2006,05,08,06,24,3.30
2006,05,08,06,25,3.30
2006,05,08,06,26,3.30
2006,05,08,06,27,3.30
2006,05,08,06,28,3.30
2006,05,08,06,29,3.30
2006,05,08,06,30,3.30
2006,05,08,06,31,3.30
2006,05,08,06,32,3.30
2006,05,08,06,33,3.40
2006,05,08,06,34,3.40
2006,05,08,06,35,3.40
2006,05,08,06,36,3.40
2006,05,08,06,37,3.40
2006,05,08,06,38,3.40
2006,05,08,06,39,3.40
2006,05,08,06,40,3.50
2006,05,08,06,41,3.50
2006,05,08,06,42,3.60
2006,05,08,06,43,3.60
2006,05,08,06,44,3.70
2006,05,08,06,45,3.70
2006,05,08,06,46,3.80
2006,05,08,06,47,3.80
2006,05,08,06,48,3.80
2006,05,08,06,49,3.80
2006,05,08,06,50,3.80
2006,05,08,06,51,3.80
2006,05,08,06,52,3.90
2006,05,08,06,53,3.90
2006,05,08,06,54,4.00
2006,05,08,06,55,4.00
2006,05,08,06,56,4.00
2006,05,08,06,57,4.00
2006,05,08,06,58,4.10
2006,05,08,06,59,4.10
2006,05,08,07,00,4.10
2006,05,08,07,01,4.10
2006,05,08,07,02,4.20
2006,05,08,07,03,4.20
2006,05,08,07,04,4.20
2006,05,08,07,05,4.20
2006,05,08,07,06,4.30
2006,05,08,07,07,4.30
2006,05,08,07,08,4.40
2006,05,08,07,09,4.40
2006,05,08,07,10,4.50
2006,05,08,07,11,4.60
2006,05,08,07,12,4.80
2006,05,08,07,13,4.90
2006,05,08,07,14,4.90
2006,05,08,07,15,5.10
2006,05,08,07,16,5.10
2006,05,08,07,17,5.10
2006,05,08,07,18,5.10
2006,05,08,07,19,5.10
2006,05,08,07,20,5.10
2006,05,08,07,21,5.10
2006,05,08,07,22,5.10
2006,05,08,07,23,5.20
2006,05,08,07,24,5.30
2006,05,08,07,25,5.40
2006,05,08,07,26,5.50
2006,05,08,07,27,5.60
2006,05,08,07,28,5.70
2006,05,08,07,29,5.80
2006,05,08,07,30,5.90
2006,05,08,07,31,6.10
2006,05,08,07,32,6.20
2006,05,08,07,33,6.40
2006,05,08,07,34,6.50
2006,05,08,07,35,6.60
2006,05,08,07,36,6.70
2006,05,08,07,37,6.80
2006,05,08,07,38,6.80
2006,05,08,07,39,7.00
2006,05,08,07,40,7.00
2006,05,08,07,41,7.00
2006,05,08,07,42,7.00
2006,05,08,07,43,7.00
2006,05,08,07,44,7.10
2006,05,08,07,45,7.10
2006,05,08,07,46,7.20
2006,05,08,07,47,7.30
2006,05,08,07,48,7.40
2006,05,08,07,49,7.50
2006,05,08,07,50,7.60
2006,05,08,07,51,7.70
2006,05,08,07,52,7.70
2006,05,08,07,53,7.80
2006,05,08,07,54,7.90
2006,05,08,07,55,7.90
2006,05,08,07,56,7.90
2006,05,08,07,57,7.80
2006,05,08,07,58,7.80
2006,05,08,07,59,7.90
2006,05,08,08,00,7.90
2006,05,08,08,01,7.90
2006,05,08,08,02,8.00
2006,05,08,08,03,8.00
2006,05,08,08,04,8.10
2006,05,08,08,05,8.10
2006,05,08,08,06,8.20
2006,05,08,08,07,8.40
2006,05,08,08,08,8.50
2006,05,08,08,09,8.50
2006,05,08,08,10,8.70
2006,05,08,08,11,8.70
2006,05,08,08,12,8.70
2006,05,08,08,13,8.80
2006,05,08,08,14,8.90
2006,05,08,08,15,9.00
2006,05,08,08,16,9.00
2006,05,08,08,17,9.00
2006,05,08,08,18,8.90
2006,05,08,08,19,8.90
2006,05,08,08,20,8.90
2006,05,08,08,21,8.90
2006,05,08,08,22,8.90
2006,05,08,08,23,8.90
2006,05,08,08,24,8.90
2006,05,08,08,25,8.90
2006,05,08,08,26,9.00
2006,05,08,08,27,9.00
2006,05,08,08,28,9.00
2006,05,08,08,29,9.00
2006,05,08,08,30,9.00
2006,05,08,08,31,8.90
2006,05,08,08,32,9.00
2006,05,08,08,33,9.00
2006,05,08,08,34,9.00
2006,05,08,08,35,9.00
2006,05,08,08,36,9.00
2006,05,08,08,37,9.10
2006,05,08,08,38,9.20
2006,05,08,08,39,9.20
2006,05,08,08,40,9.20
2006,05,08,08,41,9.20
2006,05,08,08,42,9.20
2006,05,08,08,43,9.40
2006,05,08,08,44,9.50
2006,05,08,08,45,9.60
2006,05,08,08,46,9.70
2006,05,08,08,47,9.70
2006,05,08,08,48,9.70
2006,05,08,08,49,9.60
2006,05,08,08,50,9.50
2006,05,08,08,51,9.50
2006,05,08,08,52,9.40
2006,05,08,08,53,9.40
2006,05,08,08,54,9.30
2006,05,08,08,55,9.20
2006,05,08,08,56,9.20
2006,05,08,08,57,9.10
2006,05,08,08,58,9.10
2006,05,08,08,59,9.10
2006,05,08,09,00,9.10
2006,05,08,09,01,9.30
2006,05,08,09,02,9.40
2006,05,08,09,03,9.60
2006,05,08,09,04,9.80
2006,05,08,09,05,10.00
2006,05,08,09,06,10.10
2006,05,08,09,07,10.10
2006,05,08,09,08,10.10
2006,05,08,09,09,10.10
2006,05,08,09,10,10.20
2006,05,08,09,11,10.20
2006,05,08,09,12,10.10
2006,05,08,09,13,10.10
2006,05,08,09,14,10.10
2006,05,08,09,15,10.10
2006,05,08,09,16,10.20
2006,05,08,09,17,10.30
2006,05,08,09,18,10.40
2006,05,08,09,19,10.40
2006,05,08,09,20,10.40
2006,05,08,09,21,10.40
2006,05,08,09,22,10.40
2006,05,08,09,23,10.50
2006,05,08,09,24,10.60
2006,05,08,09,25,10.60
2006,05,08,09,26,10.40
2006,05,08,09,27,10.40
2006,05,08,09,28,10.40
2006,05,08,09,29,10.40
2006,05,08,09,30,10.30
2006,05,08,09,31,10.20
2006,05,08,09,32,10.30
2006,05,08,09,33,10.20
2006,05,08,09,34,10.10
2006,05,08,09,35,10.10
2006,05,08,09,36,10.20
2006,05,08,09,37,10.20
2006,05,08,09,38,10.30
2006,05,08,09,39,10.40
2006,05,08,09,40,10.50
2006,05,08,09,41,10.60
2006,05,08,09,42,10.60
2006,05,08,09,43,10.70
2006,05,08,09,44,10.60
2006,05,08,09,45,10.50
2006,05,08,09,46,10.40
2006,05,08,09,47,10.40
2006,05,08,09,48,10.40
2006,05,08,09,49,10.30
2006,05,08,09,50,10.20
2006,05,08,09,51,10.00
2006,05,08,09,52,9.90
2006,05,08,09,53,9.80
2006,05,08,09,54,9.80
2006,05,08,09,55,9.80
2006,05,08,09,58,9.90
2006,05,08,09,59,9.90
2006,05,08,10,00,9.90
2006,05,08,10,01,9.90
2006,05,08,10,02,9.90
2006,05,08,10,03,9.90
2006,05,08,10,04,9.90
2006,05,08,10,05,9.90
2006,05,08,10,06,9.90
2006,05,08,10,07,9.90
2006,05,08,10,08,9.90
2006,05,08,10,09,9.90
2006,05,08,10,10,9.90
2006,05,08,10,11,10.00
2006,05,08,10,12,10.10
2006,05,08,10,13,9.90
2006,05,08,10,14,9.80
2006,05,08,10,15,9.70
2006,05,08,10,16,9.70
2006,05,08,10,17,9.70
2006,05,08,10,18,9.70
2006,05,08,10,19,9.80
2006,05,08,10,20,9.90
2006,05,08,10,21,9.90
2006,05,08,10,22,10.00
2006,05,08,10,23,10.10
2006,05,08,10,24,10.20
2006,05,08,10,25,10.30
2006,05,08,10,26,10.20
2006,05,08,10,27,10.30
2006,05,08,10,28,10.40
2006,05,08,10,29,10.40
2006,05,08,10,30,10.50
2006,05,08,10,31,10.60
2006,05,08,10,32,10.70
2006,05,08,10,33,10.80
2006,05,08,10,34,10.70
2006,05,08,10,35,10.60
2006,05,08,10,36,10.50
2006,05,08,10,37,10.40
2006,05,08,10,38,10.40
2006,05,08,10,39,10.40
2006,05,08,10,40,10.40
2006,05,08,10,41,10.40
2006,05,08,10,42,10.30
2006,05,08,10,43,10.30
2006,05,08,10,44,10.30
2006,05,08,10,45,10.40
2006,05,08,10,46,10.30
2006,05,08,10,47,10.20
2006,05,08,10,48,10.20
2006,05,08,10,49,10.10
2006,05,08,10,50,10.10
2006,05,08,10,51,10.10
2006,05,08,10,52,10.10
2006,05,08,10,53,10.20
2006,05,08,10,54,10.30
2006,05,08,10,55,10.40
2006,05,08,10,56,10.40
2006,05,08,10,57,10.40
2006,05,08,10,58,10.40
2006,05,08,10,59,10.40
2006,05,08,11,00,10.40
2006,05,08,11,01,10.40
2006,05,08,11,02,10.40
2006,05,08,11,03,10.40
2006,05,08,11,04,10.40
2006,05,08,11,05,10.40
2006,05,08,11,06,10.40
2006,05,08,11,07,10.40
2006,05,08,11,08,10.40
2006,05,08,11,09,10.40
2006,05,08,11,10,10.40
2006,05,08,11,11,10.40
2006,05,08,11,12,10.40
2006,05,08,11,13,10.30
2006,05,08,11,14,10.30
2006,05,08,11,15,10.30
2006,05,08,11,16,10.40
2006,05,08,11,17,10.40
2006,05,08,11,18,10.50
2006,05,08,11,19,10.60
2006,05,08,11,20,10.70
2006,05,08,11,21,10.80
2006,05,08,11,22,10.80
2006,05,08,11,23,10.90
2006,05,08,11,24,10.90
2006,05,08,11,25,10.90
2006,05,08,11,26,10.80
2006,05,08,11,27,10.80
2006,05,08,11,28,10.80
2006,05,08,11,29,10.80
2006,05,08,11,30,10.80
2006,05,08,11,31,10.70
2006,05,08,11,32,10.70
2006,05,08,11,33,10.70
2006,05,08,11,34,10.70
2006,05,08,11,35,10.70
2006,05,08,11,36,10.70
2006,05,08,11,37,10.70
2006,05,08,11,38,10.70
2006,05,08,11,39,10.70
2006,05,08,11,40,10.70
2006,05,08,11,41,10.70
2006,05,08,11,42,10.60
2006,05,08,11,43,10.70
2006,05,08,11,44,10.70
2006,05,08,11,45,10.90
2006,05,08,11,46,11.00
2006,05,08,11,47,11.10
2006,05,08,11,48,11.30
2006,05,08,11,49,11.50
2006,05,08,11,50,11.60
2006,05,08,11,51,11.80
2006,05,08,11,52,11.90
2006,05,08,11,53,12.00
2006,05,08,11,54,12.10
2006,05,08,11,55,12.00
2006,05,08,11,56,12.00
2006,05,08,11,57,12.00
2006,05,08,11,58,12.10
2006,05,08,11,59,12.10
2006,05,08,12,00,12.10
2006,05,08,12,01,12.20
2006,05,08,12,02,12.20
2006,05,08,12,03,12.10
2006,05,08,12,04,11.90
2006,05,08,12,05,11.80
2006,05,08,12,06,11.60
2006,05,08,12,07,11.50
2006,05,08,12,08,11.40
2006,05,08,12,09,11.30
2006,05,08,12,10,11.20
2006,05,08,12,11,11.10
2006,05,08,12,12,11.10
2006,05,08,12,13,11.00
2006,05,08,12,14,10.90
2006,05,08,12,15,10.90
2006,05,08,12,16,10.90
2006,05,08,12,17,10.90
2006,05,08,12,18,10.90
2006,05,08,12,19,11.10
2006,05,08,12,20,11.20
2006,05,08,12,21,11.30
2006,05,08,12,22,11.40
2006,05,08,12,23,11.60
2006,05,08,12,24,11.70
2006,05,08,12,25,11.90
2006,05,08,12,26,12.10
2006,05,08,12,27,12.10
2006,05,08,12,28,12.10
2006,05,08,12,29,11.90
2006,05,08,12,30,11.80
2006,05,08,12,31,11.60
2006,05,08,12,32,11.40
2006,05,08,12,33,11.40
2006,05,08,12,34,11.30
2006,05,08,12,35,11.20
2006,05,08,12,36,11.20
2006,05,08,12,37,11.10
2006,05,08,12,38,11.10
2006,05,08,12,39,11.10
2006,05,08,12,40,11.10
2006,05,08,12,41,11.10
2006,05,08,12,42,11.00
2006,05,08,12,43,10.90
2006,05,08,12,44,10.90
2006,05,08,12,45,10.90
2006,05,08,12,46,10.90
2006,05,08,12,47,10.90
2006,05,08,12,48,11.00
2006,05,08,12,49,11.00
2006,05,08,12,50,11.10
2006,05,08,12,51,11.10
2006,05,08,12,52,11.20
2006,05,08,12,53,11.20
2006,05,08,12,54,11.20
2006,05,08,12,55,11.20
2006,05,08,12,56,11.10
2006,05,08,12,57,11.10
2006,05,08,12,58,11.10
2006,05,08,12,59,11.10
2006,05,08,13,00,10.90
2006,05,08,13,01,10.90
2006,05,08,13,02,10.90
2006,05,08,13,03,10.90
2006,05,08,13,04,10.90
2006,05,08,13,05,10.90
2006,05,08,13,06,10.90
2006,05,08,13,07,11.00
2006,05,08,13,08,11.10
2006,05,08,13,09,11.10
2006,05,08,13,10,11.10
2006,05,08,13,11,11.10
2006,05,08,13,12,11.10
2006,05,08,13,13,11.10
2006,05,08,13,14,11.10
2006,05,08,13,15,11.10
2006,05,08,13,16,11.10
2006,05,08,13,17,11.20
2006,05,08,13,18,11.30
2006,05,08,13,19,11.30
2006,05,08,13,20,11.30
2006,05,08,13,21,11.30
2006,05,08,13,22,11.30
2006,05,08,13,23,11.30
2006,05,08,13,24,11.30
2006,05,08,13,25,11.20
2006,05,08,13,26,11.20
2006,05,08,13,27,11.10
2006,05,08,13,28,11.10
2006,05,08,13,29,11.10
2006,05,08,13,30,11.10
2006,05,08,13,31,11.10
2006,05,08,13,32,11.10
2006,05,08,13,33,11.10
2006,05,08,13,34,11.00
2006,05,08,13,35,10.90
2006,05,08,13,36,10.90
2006,05,08,13,37,10.90
2006,05,08,13,38,11.00
2006,05,08,13,39,11.10
2006,05,08,13,40,10.90
2006,05,08,13,41,10.90
2006,05,08,13,42,10.90
2006,05,08,13,43,10.90
2006,05,08,13,44,10.90
2006,05,08,13,45,10.90
2006,05,08,13,46,10.90
2006,05,08,13,47,10.90
2006,05,08,13,48,10.90
2006,05,08,13,49,10.90
2006,05,08,13,50,10.90
2006,05,08,13,51,10.90
2006,05,08,13,52,10.90
2006,05,08,13,53,10.90
2006,05,08,13,54,10.90
2006,05,08,13,55,11.00
2006,05,08,13,56,11.10
2006,05,08,13,57,11.10
2006,05,08,13,58,11.20
2006,05,08,13,59,11.30
2006,05,08,14,00,11.30
2006,05,08,14,01,11.30
2006,05,08,14,02,11.30
2006,05,08,14,03,11.30
2006,05,08,14,04,11.30
2006,05,08,14,05,11.20
2006,05,08,14,06,11.10
2006,05,08,14,07,11.10
2006,05,08,14,08,10.90
2006,05,08,14,09,10.90
2006,05,08,14,10,10.80
2006,05,08,14,11,10.70
2006,05,08,14,12,10.60
2006,05,08,14,13,10.60
2006,05,08,14,14,10.60
2006,05,08,14,15,10.60
2006,05,08,14,16,10.60
2006,05,08,14,17,10.60
2006,05,08,14,18,10.60
2006,05,08,14,19,10.60
2006,05,08,14,20,10.60
2006,05,08,14,21,10.60
2006,05,08,14,22,10.60
2006,05,08,14,23,10.60
2006,05,08,14,24,10.70
2006,05,08,14,25,10.70
2006,05,08,14,26,10.80
2006,05,08,14,27,10.80
2006,05,08,14,28,10.90
2006,05,08,14,29,10.90
2006,05,08,14,30,10.90
2006,05,08,14,31,11.00
2006,05,08,14,32,11.10
2006,05,08,14,33,11.10
2006,05,08,14,34,11.10
2006,05,08,14,35,11.10
2006,05,08,14,36,11.10
2006,05,08,14,37,11.20
2006,05,08,14,38,11.20
2006,05,08,14,39,11.20
2006,05,08,14,40,11.30
2006,05,08,14,41,11.30
2006,05,08,14,42,11.40
2006,05,08,14,43,11.30
2006,05,08,14,44,11.30
2006,05,08,14,45,11.30
2006,05,08,14,46,11.20
2006,05,08,14,47,11.10
2006,05,08,14,48,11.10
2006,05,08,14,49,11.10
2006,05,08,14,50,11.10
2006,05,08,14,51,11.10
2006,05,08,14,52,11.10
2006,05,08,14,53,11.10
2006,05,08,14,54,11.10
2006,05,08,14,55,11.10
2006,05,08,14,56,11.10
2006,05,08,14,57,11.10
2006,05,08,14,58,11.10
2006,05,08,14,59,11.20
2006,05,08,15,00,11.20
2006,05,08,15,01,11.20
2006,05,08,15,02,11.20
2006,05,08,15,03,11.10
2006,05,08,15,04,11.10
2006,05,08,15,05,11.10
2006,05,08,15,06,11.10
2006,05,08,15,07,11.10
2006,05,08,15,08,11.20
2006,05,08,15,09,11.20
2006,05,08,15,10,11.30
2006,05,08,15,11,11.30
2006,05,08,15,12,11.30
2006,05,08,15,13,11.30
2006,05,08,15,14,11.30
2006,05,08,15,15,11.40
2006,05,08,15,16,11.40
2006,05,08,15,17,11.40
2006,05,08,15,18,11.40
2006,05,08,15,19,11.40
2006,05,08,15,20,11.40
2006,05,08,15,21,11.40
2006,05,08,15,22,11.30
2006,05,08,15,23,11.30
2006,05,08,15,24,11.40
2006,05,08,15,25,11.40
2006,05,08,15,26,11.40
2006,05,08,15,27,11.40
2006,05,08,15,28,11.40
2006,05,08,15,29,11.40
2006,05,08,15,30,11.40
2006,05,08,15,31,11.40
2006,05,08,15,32,11.40
2006,05,08,15,33,11.40
2006,05,08,15,34,11.50
2006,05,08,15,35,11.60
2006,05,08,15,36,11.70
2006,05,08,15,37,11.70
2006,05,08,15,38,11.70
2006,05,08,15,39,11.70
2006,05,08,15,40,11.70
2006,05,08,15,41,11.70
2006,05,08,15,42,11.80
2006,05,08,15,43,11.80
2006,05,08,15,44,11.80
2006,05,08,15,45,11.80
2006,05,08,15,46,11.80
2006,05,08,15,47,11.80
2006,05,08,15,48,11.90
2006,05,08,15,49,11.90
2006,05,08,15,50,11.80
2006,05,08,15,51,11.60
2006,05,08,15,52,11.60
2006,05,08,15,53,11.60
2006,05,08,15,54,11.60
2006,05,08,15,55,11.60
2006,05,08,15,56,11.70
2006,05,08,15,57,11.80
2006,05,08,15,58,11.80
2006,05,08,15,59,11.70
2006,05,08,16,00,11.60
2006,05,08,16,01,11.60
2006,05,08,16,02,11.60
2006,05,08,16,03,11.60
2006,05,08,16,04,11.70
2006,05,08,16,05,11.80
2006,05,08,16,06,11.80
2006,05,08,16,07,11.80
2006,05,08,16,08,11.90
2006,05,08,16,09,11.90
2006,05,08,16,10,11.90
2006,05,08,16,11,12.00
2006,05,08,16,12,12.10
2006,05,08,16,13,12.10
2006,05,08,16,14,12.10
2006,05,08,16,15,12.20
2006,05,08,16,16,12.40
2006,05,08,16,17,12.50
2006,05,08,16,18,12.60
2006,05,08,16,19,12.70
2006,05,08,16,20,12.90
2006,05,08,16,21,12.90
2006,05,08,16,22,13.00
2006,05,08,16,23,13.00
2006,05,08,16,24,13.10
2006,05,08,16,25,13.20
2006,05,08,16,26,13.30
2006,05,08,16,27,13.20
2006,05,08,16,28,13.00
2006,05,08,16,29,12.80
2006,05,08,16,30,12.90
2006,05,08,16,31,13.00
2006,05,08,16,32,12.90
2006,05,08,16,33,12.90
2006,05,08,16,34,12.80
2006,05,08,16,35,12.80
2006,05,08,16,36,12.90
2006,05,08,16,37,13.00
2006,05,08,16,38,13.00
2006,05,08,16,39,13.10
2006,05,08,16,40,13.00
2006,05,08,16,41,12.90
2006,05,08,16,42,12.70
2006,05,08,16,43,12.60
2006,05,08,16,44,12.60
2006,05,08,16,45,12.60
2006,05,08,16,46,12.70
2006,05,08,16,47,12.80
2006,05,08,16,48,12.80
2006,05,08,16,49,12.80
2006,05,08,16,50,12.80
2006,05,08,16,51,13.00
2006,05,08,16,52,13.00
2006,05,08,16,53,13.20
2006,05,08,16,54,13.20
2006,05,08,16,55,13.30
2006,05,08,16,56,13.30
2006,05,08,16,57,13.40
2006,05,08,16,58,13.40
2006,05,08,16,59,13.30
2006,05,08,17,00,13.10
2006,05,08,17,01,13.00
2006,05,08,17,02,12.80
2006,05,08,17,03,12.70
2006,05,08,17,04,12.60
2006,05,08,17,05,12.60
2006,05,08,17,06,12.70
2006,05,08,17,07,12.80
2006,05,08,17,08,12.80
2006,05,08,17,09,12.90
2006,05,08,17,10,12.90
2006,05,08,17,11,12.80
2006,05,08,17,12,12.80
2006,05,08,17,13,12.70
2006,05,08,17,14,12.60
2006,05,08,17,15,12.50
2006,05,08,17,16,12.40
2006,05,08,17,17,12.30
2006,05,08,17,18,12.30
2006,05,08,17,19,12.30
2006,05,08,17,20,12.30
2006,05,08,17,21,12.40
2006,05,08,17,22,12.40
2006,05,08,17,23,12.50
2006,05,08,17,24,12.50
2006,05,08,17,25,12.50
2006,05,08,17,26,12.50
2006,05,08,17,27,12.60
2006,05,08,17,28,12.60
2006,05,08,17,29,12.60
2006,05,08,17,30,12.60
2006,05,08,17,31,12.60
2006,05,08,17,32,12.60
2006,05,08,17,33,12.60
2006,05,08,17,34,12.60
2006,05,08,17,35,12.50
2006,05,08,17,36,12.50
2006,05,08,17,37,12.60
2006,05,08,17,38,12.60
2006,05,08,17,39,12.60
2006,05,08,17,40,12.60
2006,05,08,17,41,12.60
2006,05,08,17,42,12.70
2006,05,08,17,43,12.60
2006,05,08,17,44,12.50
2006,05,08,17,45,12.50
2006,05,08,17,46,12.60